VE6KEE-13 Weather Reports


time (UTC)temp
F
wind
direction
speed
knots
gust
knots
rain 1hr
in
rain 24hr
in
rain mn
in
humidity
%
barometer
mb
20260503003233 68 262 1.7 6.1 0.00 0.00 0.00 22 1017.0
20260503001730 69 285 0.9 3.5 0.00 0.00 0.00 21 1016.9
20260503000233 70 274 6.1 7.8 0.00 0.00 0.00 20 1017.1
20260502234728 71 232 1.7 7.0 0.00 0.00 0.00 20 1017.1
20260502233233 72 256 4.3 10.4 0.00 0.00 0.00 19 1017.4
20260502231727 73 237 1.7 4.3 0.00 0.00 0.00 19 1017.4
20260502230228 73 163 1.7 4.3 0.00 0.00 0.00 18 1017.5
20260502224726 74 216 4.3 7.0 0.00 0.00 0.00 18 1017.6
20260502223225 75 261 4.3 6.1 0.00 0.00 0.00 17 1017.7
20260502221728 76 247 4.3 5.2 0.00 0.00 0.00 17 1017.9
20260502220228 76 275 6.1 7.0 0.00 0.00 0.00 18 1018.1
20260502214722 76 225 3.5 7.0 0.00 0.00 0.00 18 1018.2
20260502213222 76 103 0.0 7.0 0.00 0.00 0.00 17 1018.6
20260502211721 76 259 2.6 4.3 0.00 0.00 0.00 18 1018.7
20260502210220 75 277 6.1 6.1 0.00 0.00 0.00 18 1018.8
20260502204720 75 290 4.3 6.1 0.00 0.00 0.00 18 1018.9
20260502203227 74 232 5.2 7.0 0.00 0.00 0.00 18 1019.1
20260502201718 74 290 5.2 13.9 0.00 0.00 0.00 18 1019.4
20260502200217 73 263 3.5 8.7 0.00 0.00 0.00 19 1019.6
20260502194717 73 262 3.5 7.8 0.00 0.00 0.00 20 1019.9
20260502193217 71 273 3.5 7.0 0.00 0.00 0.00 21 1019.9
20260502191715 70 320 6.1 7.8 0.00 0.00 0.00 22 1020.1
20260502190221 70 274 2.6 11.3 0.00 0.00 0.00 24 1020.2
20260502184713 68 297 6.1 9.6 0.00 0.00 0.00 25 1020.5
20260502183213 68 306 3.5 6.1 0.00 0.00 0.00 24 1020.5
20260502181716 68 304 5.2 8.7 0.00 0.00 0.00 25 1020.6
20260502180211 69 303 4.3 7.8 0.00 0.00 0.00 26 1020.7
20260502170208 66 276 4.3 5.2 0.00 0.00 0.00 30 1021.0
20260502163207 67 293 5.2 5.2 0.00 0.00 0.00 31 1020.9
20260502161706 65 315 2.6 7.8 0.00 0.00 0.00 33 1021.0
20260502160205 64 259 1.7 4.3 0.00 0.00 0.00 34 1020.9
20260502151703 63 334 2.6 3.5 0.00 0.00 0.00 37 1020.8
20260502150202 62 246 1.7 3.5 0.00 0.00 0.00 38 1020.9
20260502130201 51 315 1.7 2.6 0.00 0.00 0.00 48 1020.9
20260502123156 51 270 0.0 0.9 0.00 0.00 0.00 48 1020.9
20260502121654 51 291 1.7 2.6 0.00 0.00 0.00 47 1020.7
20260502120156 51 313 0.9 5.2 0.00 0.00 0.00 47 1020.7
20260502114656 51 270 1.7 2.6 0.00 0.00 0.00 46 1020.6
20260502113201 51 270 1.7 3.5 0.00 0.00 0.00 45 1020.5
20260502111651 51 45 0.0 0.9 0.00 0.00 0.00 44 1020.1
20260502110150 52 175 0.0 0.9 0.00 0.00 0.00 43 1020.2
20260502104649 52 225 0.0 2.6 0.00 0.00 0.00 42 1020.3
20260502103149 52 45 0.0 1.7 0.00 0.00 0.00 42 1020.1
20260502101650 52 170 1.7 1.7 0.00 0.00 0.00 41 1020.0
20260502100155 52 269 0.0 0.0 0.00 0.00 0.00 40 1019.9
20260502090149 54 45 0.0 0.0 0.00 0.00 0.00 39 1019.5
20260502070148 54 40 2.6 3.5 0.00 0.00 0.00 38 1018.6
20260502064637 55 37 2.6 3.5 0.00 0.00 0.00 37 1018.4
20260502063137 55 67 1.7 3.5 0.00 0.00 0.00 36 1018.2
20260502061636 56 48 5.2 5.2 0.00 0.00 0.00 35 1018.0
20260502060137 56 32 2.6 7.8 0.00 0.00 0.00 35 1017.8
20260502054635 57 18 3.5 7.8 0.00 0.00 0.00 33 1017.6
20260502053142 58 38 4.3 7.8 0.00 0.00 0.00 32 1017.4
20260502051633 59 0 5.2 7.8 0.00 0.00 0.00 30 1017.0
20260502050132 59 276 1.7 3.5 0.00 0.00 0.00 29 1017.0
20260502044631 60 341 2.6 2.6 0.00 0.00 0.00 28 1016.8
20260502043131 60 8 1.7 3.5 0.00 0.00 0.00 27 1016.2
20260502041630 60 0 0.9 2.6 0.00 0.00 0.00 27 1015.8
20260502040136 61 37 3.5 3.5 0.00 0.00 0.00 27 1015.8
20260502034628 62 46 0.0 1.7 0.00 0.00 0.00 26 1015.6
20260502033128 63 45 1.7 2.6 0.00 0.00 0.00 25 1015.4
20260502031627 64 45 0.0 0.0 0.00 0.00 0.00 24 1015.3
20260502030126 65 315 0.0 0.0 0.00 0.00 0.00 23 1015.1
20260502020123 69 0 0.9 1.7 0.00 0.00 0.00 20 1014.8